Weather History for KSDL - February, 2013

Change the Weather History Date:

Wednesday, February 27, 2013

  Actual Average Record
Temperature  
Mean Temperature 55 °F -  
Max Temperature 64 °F 64 °F 79 °F (2008)
Min Temperature 46 °F 44 °F 39 °F (2011)
Degree Days  
Heating Degree Days 10    
Growing Degree Days 5 (Base 50)    
Moisture  
Dew Point 6 °F    
Average Humidity 14    
Maximum Humidity 22    
Minimum Humidity 9    
Precipitation  
Precipitation 0.00 in - - ()
Sea Level Pressure  
Sea Level Pressure 30.15 in    
Wind  
Wind Speed 3 mph (NNW)    
Max Wind Speed 7 mph    
Max Gust Speed -    
Visibility 10 miles    
Events      
Averages and records for this station are not official NWS values.
T = Trace of Precipitation, MM = Missing Value Source: NWS Daily Summary

Daily Weather History Graph

Daily Weather History Graph

Search for Another Location

Airport or City:

Trip Planner

Search our weather history database for the weather conditions in past years. The results will help you decide how hot, cold, wet, or windy it might be!

Date:

Astronomy

Feb. 27, 2013 Rise Set
Actual Time 6:58 AM MST 6:22 PM MST
Civil Twilight 6:33 AM MST 6:47 PM MST
Nautical Twilight 6:04 AM MST 7:16 PM MST
Astronomical Twilight 5:35 AM MST 7:45 PM MST
Moon 8:38 PM MST (2/27) 7:43 AM MST (2/27)
Length of Visible Light 12h 14m
Length of Day
11h 24m
Waning Gibbous, 96% of the Moon is Illuminated
Feb 27
Waning Gibbous
Mar 4
Last Quarter
Mar 11
New
Mar 19
First Quarter
Mar 27
Full

Hourly Weather History & Observations

Time (MST) Temp. Windchill Dew Point Humidity Pressure Visibility Wind Dir Wind Speed Gust Speed Precip Events Conditions
1:53 AM 52.0 °F - 3.9 °F 14% 30.10 in 10.0 mi NW 5.8 mph - N/A   Clear
2:53 AM 52.0 °F - 1.9 °F 13% 30.10 in 10.0 mi Calm Calm - N/A   Clear
3:53 AM 51.1 °F - 1.0 °F 13% 30.09 in 10.0 mi NNW 5.8 mph - N/A   Clear
4:53 AM 50.0 °F - 1.0 °F 13% 30.12 in 10.0 mi North 6.9 mph - N/A   Clear
5:53 AM 48.9 °F - 1.9 °F 15% 30.14 in 10.0 mi Calm Calm - N/A   Clear
6:53 AM 46.0 °F 44.8 °F 6.1 °F 20% 30.16 in 10.0 mi NNW 3.5 mph - N/A   Clear
8:53 AM 54.0 °F - 6.1 °F 15% 30.21 in 10.0 mi NNE 4.6 mph - N/A   Clear
10:53 AM 57.0 °F - 6.1 °F 13% 30.21 in 10.0 mi Variable 3.5 mph - N/A   Clear
11:53 AM 60.1 °F - 6.1 °F 12% 30.20 in 10.0 mi Calm Calm - N/A   Clear
12:53 PM 61.0 °F - 6.1 °F 11% 30.18 in 10.0 mi Variable 3.5 mph - N/A   Clear
1:53 PM 63.0 °F - 5.0 °F 10% 30.15 in 10.0 mi Calm Calm - N/A   Clear
2:53 PM 64.0 °F - 3.0 °F 9% 30.13 in 10.0 mi Calm Calm - N/A   Clear
3:53 PM 64.0 °F - 3.9 °F 9% 30.11 in 10.0 mi Calm Calm - N/A   Clear
4:53 PM 64.0 °F - 5.0 °F 10% 30.11 in 10.0 mi Calm Calm - N/A   Clear
5:53 PM 64.9 °F - 6.1 °F 10% 30.12 in 10.0 mi West 5.8 mph - N/A   Clear
6:53 PM 61.0 °F - 8.1 °F 12% 30.14 in 10.0 mi West 4.6 mph - N/A   Clear
7:53 PM 57.9 °F - 10.9 °F 16% 30.15 in 10.0 mi Calm Calm - N/A   Clear
8:53 PM 55.9 °F - 16.0 °F 21% 30.16 in 10.0 mi NNE 3.5 mph - N/A   Clear
9:53 PM 54.0 °F - 16.0 °F 22% 30.19 in 10.0 mi North 4.6 mph - N/A   Clear